Garden City Regional Airport
KGCK : now visible

Airfield :











YOU CAN JOIN US ON...

 
LOGIN :

Register | Disclaimer

   EN    FR    IT 

 









Legend :    VFR   Marginal VFR   IFR   Intensive IFR   Very Intensive IFR
Visi :
Ceiling :
>= 8 km
>= 3000ft
5 to 8 km
1000 to 3000 ft
1500m to 5 km
500 to 1000 ft
800 to 1500m
200 to 500 ft
< 800m
< 200 ft
Symbols :   Thunderstorms  Fog  Heavy snow  Heavy precipitations  Wind > 20 kt






- Airport Elevation : 2891 ft
- IATA code : GCK


KGCK - Garden City Regional

CURRENT METAR :
  • 260754Z AUTO 17005KT 10SM CLR 16/09 A2979 RMK AO2 SLP050 T01560089

EXPIRED METARs :
  • 260654Z AUTO 14008KT 10SM CLR 17/09 A2979 RMK AO2 SLP052 T01670089
  • 260554Z AUTO 15006KT 10SM CLR 20/10 A2981 RMK AO2 SLP057 T02000100 10306 20200 403670117 50003

TAF KGCK
Valid from the 26 at 06:00 until the 27 at 06:00 UTC


260520Z 2606/2706 17010KT P6SM SKC
FM261200 22009KT P6SM SKC
FM261500 19010KT P6SM SKC
FM270000 16010KT P6SM SKC
KZKC FIR / North America



MET'MAP, your aeronautical weather chart ! - Copyright ORBIFLY December 2007 - Disclaimer

ORBIFLY MET'MAP TEAM :

Programming & Development : Alexandra Zaïnal
Concept & original design : Baudouin d'Aumeries
Assistance for programming : Marc-Olivier Méhu
Technical & hardware support : Manuel Goepfert

Contact : metmap@orbifly.com




SOURCES & CREDITS :

   NOAA       Earth
Advisory